Find Starlink 32623

NORAD ID: 62152 Int'l Des: 2024-224 Owner: SPXS Country: US Constellation: starlink operational
LEOCIRCULAR

Live-Position

3D-Globus wird geladen...

Über Starlink 32623

Beschreibung wird geladen...

Nächste Überflüge

Passes for default location (London). Set your location on the main map for personalized predictions.

Höhenverlauf

Loading altitude history...

Zweizeiliger Elementsatz

1 62152U 24224P 26121.66525207 .00037984 00000-0 13805-2 0 9995
2 62152 43.0026 222.2453 0001789 273.6918 86.3729 15.27632552 80487
Epoch: 1. Mai 2026 • Age: 13 hours

Aktueller Status

Höhe 487.0 km
Geschwindigkeit 7.63 km/s
Subsatellitenpunkt 42.61°N, 4.76°E
Startdatum 30. Nov. 2024
Alter 1.4 years
Typ internet

Technische Details

Klassifizierung Payload
Masse 730.00 kg
Trockenmasse 700.00 kg
Gesamtmasse 730.00 kg
Länge 0.30 m
Durchmesser 4.10 m
Spannweite 29.00 m
Form Box + pan
Hersteller SPXS
Bus-Typ Starlink V2M
Phasenstatus In Orbit
Besitzer/Staat SPXS/US

Most Searched